Monument Pass, CO

4:59 PM MST on December 09, 2019 (GMT -0700)
Monument Pass

Weather History for KMNH - November, 2019

Change the Weather History Date:

Sunday, November 17, 2019

  Actual Average Record
Temperature  
Mean Temperature 36 °F -  
Max Temperature 50 °F - 61 °F (2017)
Min Temperature 21 °F - 8 °F (2014)
Degree Days  
Heating Degree Days 30    
Month to date heating degree days 472  
Cooling Degree Days 0    
Month to date cooling degree days 0  
Moisture  
Dew Point 25 °F    
Average Humidity 70    
Maximum Humidity 100    
Minimum Humidity 34    
Precipitation  
Precipitation 0.00 in - 0.07 in (2017)
Snow  
Snow 0.00 in - - ()
Snow Depth 0.00 in    
Sea Level Pressure  
Sea Level Pressure 30.14 in    
Wind  
Wind Speed 7 mph ()    
Max Wind Speed 13 mph    
Max Gust Speed 20 mph    
Visibility 10.0 miles    
Events      
T = Trace of Precipitation, MM = Missing Value Source: Averaged Metar Reports

Daily Weather History Graph

Daily Weather History Graph

Search for Another Location

Airport or City:

Astronomy

Nov. 17, 2019 Rise Set
Actual Time 6:43 AM MST 4:42 PM MST
Civil Twilight 6:15 AM MST 5:11 PM MST
Nautical Twilight 5:42 AM MST 5:43 PM MST
Astronomical Twilight 5:10 AM MST 6:15 PM MST
Moon 9:22 PM MST (11/17) 11:31 AM MST (11/17)
Length of Visible Light 10h 56m
Length of Day
9h 58m
Waning Gibbous, 73% of the Moon is Illuminated
Nov 17
Waning Gibbous
Nov 19
Last Quarter
Nov 26
New
Dec 3
First Quarter
Dec 11
Full

Hourly Weather History & Observations

Time (MST) Temp. Windchill Dew Point Humidity Pressure Visibility Wind Dir Wind Speed Gust Speed Precip Events Conditions
12:12 AM 26.6 °F - 26.6 °F 100% 30.26 in 10.0 mi North - - N/A   Mostly Cloudy
12:30 AM 24.8 °F - 23.0 °F 93% 30.26 in 10.0 mi North - - N/A   Clear
12:48 AM 24.8 °F - 23.0 °F 93% 30.25 in 10.0 mi North - - N/A   Clear
1:12 AM 24.8 °F - 23.0 °F 93% 30.25 in 10.0 mi North - - N/A   Clear
1:30 AM 24.8 °F - 23.0 °F 93% 30.25 in 10.0 mi North - - N/A   Clear
1:48 AM 26.6 °F - 24.8 °F 93% 30.25 in 10.0 mi North - - N/A   Clear
2:12 AM 24.8 °F - 23.0 °F 93% 30.24 in 10.0 mi North - - N/A   Clear
2:30 AM 23.0 °F - 21.2 °F 93% 30.24 in 10.0 mi North - - N/A   Clear
2:48 AM 23.0 °F - 21.2 °F 93% 30.23 in 10.0 mi North - - N/A   Clear
3:12 AM 23.0 °F - 21.2 °F 93% 30.22 in 10.0 mi North - - N/A   Clear
3:30 AM 23.0 °F - 19.4 °F 86% 30.23 in 10.0 mi North - - N/A   Clear
3:48 AM 23.0 °F - 21.2 °F 93% 30.22 in 10.0 mi North - - N/A   Clear
4:11 AM 21.2 °F 10.9 °F 19.4 °F 93% 30.22 in 10.0 mi SSW 9.2 mph - N/A   Clear
4:29 AM 21.2 °F - 19.4 °F 93% 30.21 in 10.0 mi North - - N/A   Clear
4:53 AM 21.2 °F - 19.4 °F 93% 30.21 in 10.0 mi North - - N/A   Clear
5:12 AM 21.2 °F 12.6 °F 17.6 °F 86% 30.20 in 10.0 mi SSW 6.9 mph - N/A   Clear
5:30 AM 21.2 °F - 17.6 °F 86% 30.19 in 10.0 mi North - - N/A   Clear
5:48 AM 21.2 °F - 17.6 °F 86% 30.18 in 10.0 mi North - - N/A   Clear
6:12 AM 23.0 °F - 19.4 °F 86% 30.17 in 10.0 mi North - - N/A   Clear
6:30 AM 23.0 °F 12.4 °F 19.4 °F 86% 30.16 in 10.0 mi South 10.4 mph - N/A   Clear
6:48 AM 23.0 °F 12.4 °F 19.4 °F 86% 30.17 in 10.0 mi South 10.4 mph - N/A   Clear
7:12 AM 26.6 °F 16.8 °F 21.2 °F 80% 30.18 in 10.0 mi South 10.4 mph - N/A   Clear
7:30 AM 28.4 °F 18.5 °F 23.0 °F 80% 30.19 in 10.0 mi South 11.5 mph - N/A   Clear
7:48 AM 28.4 °F 19.7 °F 23.0 °F 80% 30.19 in 10.0 mi South 9.2 mph - N/A   Clear
8:12 AM 30.2 °F 21.9 °F 26.6 °F 86% 30.18 in 10.0 mi South 9.2 mph - N/A   Clear
8:30 AM 32.0 °F 23.0 °F 28.4 °F 87% 30.18 in 10.0 mi South 11.5 mph - N/A   Clear
8:48 AM 32.0 °F 23.6 °F 30.2 °F 93% 30.18 in 10.0 mi South 10.4 mph - N/A   Clear
9:12 AM 33.8 °F 26.4 °F 30.2 °F 87% 30.17 in 10.0 mi South 9.2 mph 19.6 mph N/A   Clear
9:30 AM 33.8 °F 24.8 °F 30.2 °F 87% 30.17 in 10.0 mi South 12.7 mph 17.3 mph N/A   Clear
9:53 AM 35.6 °F 27.1 °F 30.2 °F 81% 30.17 in 10.0 mi South 12.7 mph - N/A   Clear
10:12 AM 37.4 °F 29.8 °F 32.0 °F 81% 30.16 in 10.0 mi South 11.5 mph - N/A   Clear
10:30 AM 39.2 °F 33.0 °F 30.2 °F 70% 30.16 in 10.0 mi SSW 9.2 mph - N/A   Clear
10:54 AM 42.8 °F 39.3 °F 28.4 °F 57% 30.16 in 10.0 mi SSW 5.8 mph - N/A   Clear
11:12 AM 44.6 °F - 23.0 °F 43% 30.15 in 10.0 mi Calm Calm - N/A   Clear
11:29 AM 46.4 °F - 19.4 °F 34% 30.14 in 10.0 mi Calm Calm - N/A   Clear
12:12 PM 48.2 °F - 24.8 °F 40% 30.12 in 10.0 mi South 3.5 mph - N/A   Clear
12:30 PM 50.0 °F - 24.8 °F 37% 30.10 in 10.0 mi SW 4.6 mph - N/A   Clear
12:48 PM 48.2 °F - 21.2 °F 34% 30.09 in 10.0 mi Calm Calm - N/A   Clear
1:12 PM 50.0 °F - 23.0 °F 35% 30.09 in 10.0 mi Calm Calm - N/A   Clear
1:30 PM 50.0 °F - 23.0 °F 35% 30.08 in 10.0 mi SW 6.9 mph - N/A   Clear
1:53 PM 48.2 °F - 26.6 °F 43% 30.09 in 10.0 mi SW 6.9 mph - N/A   Clear
2:12 PM 48.2 °F - 26.6 °F 43% 30.08 in 10.0 mi SSW 5.8 mph - N/A   Clear
2:30 PM 50.0 °F - 26.6 °F 40% 30.09 in 10.0 mi SSW 4.6 mph - N/A   Clear
2:48 PM 50.0 °F - 26.6 °F 40% 30.08 in 10.0 mi SSW 3.5 mph - N/A   Clear
3:12 PM 50.0 °F - 26.6 °F 40% 30.08 in 10.0 mi SSW 3.5 mph - N/A   Clear
3:30 PM 48.2 °F - 26.6 °F 43% 30.09 in 10.0 mi WSW 4.6 mph - N/A   Clear
3:48 PM 46.4 °F 45.2 °F 28.4 °F 50% 30.09 in 10.0 mi WSW 3.5 mph - N/A   Clear
4:12 PM 44.6 °F 40.7 °F 26.6 °F 49% 30.09 in 10.0 mi SW 6.9 mph - N/A   Clear
4:30 PM 42.8 °F 38.6 °F 26.6 °F 53% 30.10 in 10.0 mi SW 6.9 mph - N/A   Clear
4:48 PM 41.0 °F 36.4 °F 26.6 °F 57% 30.10 in 10.0 mi SW 6.9 mph - N/A   Clear
5:13 PM 39.2 °F 33.0 °F 26.6 °F 61% 30.10 in 10.0 mi SSW 9.2 mph - N/A   Clear
5:31 PM 37.4 °F 31.4 °F 26.6 °F 65% 30.10 in 10.0 mi South 8.1 mph - N/A   Clear
5:49 PM 37.4 °F 33.8 °F 26.6 °F 65% 30.10 in 10.0 mi SSW 4.6 mph - N/A   Clear
6:12 PM 35.6 °F 29.2 °F 26.6 °F 70% 30.10 in 10.0 mi SSW 8.1 mph - N/A   Clear
6:30 PM 35.6 °F 29.2 °F 26.6 °F 70% 30.09 in 10.0 mi South 8.1 mph - N/A   Clear
6:48 PM 35.6 °F 28.6 °F 26.6 °F 70% 30.09 in 10.0 mi SSW 9.2 mph - N/A   Clear
7:12 PM 33.8 °F 28.6 °F 26.6 °F 75% 30.09 in 10.0 mi SSW 5.8 mph - N/A   Clear
7:29 PM 33.8 °F 27.7 °F 26.6 °F 75% 30.09 in 10.0 mi South 6.9 mph - N/A   Clear
7:53 PM 35.6 °F 29.2 °F 26.6 °F 70% 30.09 in 10.0 mi SSW 8.1 mph - N/A   Clear
8:12 PM 37.4 °F 29.3 °F 26.6 °F 65% 30.09 in 10.0 mi SSW 12.7 mph - N/A   Clear
8:30 PM 35.6 °F 28.6 °F 26.6 °F 70% 30.09 in 10.0 mi SSW 9.2 mph - N/A   Clear
8:53 PM 37.4 °F 31.4 °F 26.6 °F 65% 30.09 in 10.0 mi SW 8.1 mph - N/A   Clear
9:12 PM 37.4 °F 32.1 °F 26.6 °F 65% 30.09 in 10.0 mi SW 6.9 mph - N/A   Clear
9:30 PM 37.4 °F 30.3 °F 26.6 °F 65% 30.08 in 10.0 mi SW 10.4 mph - N/A   Clear
9:48 PM 39.2 °F 33.0 °F 26.6 °F 61% 30.08 in 10.0 mi SW 9.2 mph - N/A   Mostly Cloudy
10:12 PM 37.4 °F 32.8 °F 26.6 °F 65% 30.07 in 10.0 mi WSW 5.8 mph - N/A   Scattered Clouds
10:30 PM 37.4 °F 33.8 °F 26.6 °F 65% 30.08 in 10.0 mi South 4.6 mph - N/A   Scattered Clouds
10:48 PM 42.8 °F 38.6 °F 24.8 °F 49% 30.06 in 10.0 mi SW 6.9 mph - N/A   Scattered Clouds
11:12 PM 41.0 °F 37.1 °F 24.8 °F 53% 30.06 in 10.0 mi SW 5.8 mph - N/A   Clear
11:29 PM 35.6 °F 31.7 °F 24.8 °F 65% 30.06 in 10.0 mi SW 4.6 mph - N/A   Clear
11:52 PM 37.4 °F 31.4 °F 24.8 °F 60% 30.05 in 10.0 mi WSW 8.1 mph - N/A   Clear